Orbital Elements at Epoch 2459200.5 (2020-Dec-17.0) TDB
Reference: JPL 18 (heliocentric ecliptic J2000)
Element | Value | Uncertainty (1-sigma) | Units |
e | .1341031564935911 | 3.8135e-08 | |
a | 2.636563373705886 | 1.2058e-08 | au |
q | 2.282991902996535 | 1.0123e-07 | au |
i | 2.087112882628878 | 4.4754e-06 | deg |
node | 327.0956952725963 | 0.00011089 | deg |
peri | 352.1080702953493 | 0.00011247 | deg |
M | 122.6576422130143 | 1.6729e-05 | deg |
tp | 2458667.720065200073 (2019-Jul-03.22006520) | 7.3173e-05 | TDB |
period | 1563.708327238848 4.28 | 1.0727e-05 2.937e-08 | d yr |
n | .2302219625802453 | 1.5794e-09 | deg/d |
Q | 2.990134844415236 | 1.3675e-08 | au |
|
| | Orbit Determination Parameters
Additional Information
|